Location: Unspecified
(0.0000°N, 0.0000°E)
Time: 22:31:29
(UTC+00:00)

deb S5M - Pass Details

Date: 22 June 2024
Orbit: 775 x 867 km, 82.5° (Epoch: 13 July)

Event Time Altitude Azimuth Distance (km) Brightness Sun altitude
Exits shadow 05:05:13 17° 256° (WSW) 1,942 ? -13.0°
Maximum altitude 05:06:29 19° 274° (W) 1,877 ? -12.7°
Drops below altitude 10° 05:10:15 10° 317° (NW) 2,436 ? -11.9°
Sets 05:13:23 0° 335° (NNW) 3,385 ? -11.2°
